Location: Hohe Wand Kleine Kanzel
(47.8330°N, 16.0170°E)
Time: 07:49:13
(UTC+02:00)

X-37B - Visible Passes

Search period start: 25 September 2022 00:00
Search period end: 05 October 2022 00:00
Orbit: 330 x 340 km, 45.0° (Epoch: 02 September)

Date Brightness Start Highest point End Pass type
(mag) Time Alt. Az. Time Alt. Az. Time Alt. Az.
25 Sep 3.0 05:03:55 12° SSE 05:04:34 12° SSE 05:05:53 10° ESE visible
26 Sep 2.2 05:23:36 18° SSW 05:24:43 22° SSE 05:27:03 10° ESE visible
27 Sep 1.4 05:43:15 18° SW 05:44:58 35° SSE 05:47:38 10° E visible
28 Sep 3.1 04:31:38 15° ESE 04:31:38 15° ESE 04:32:29 10° ESE visible
28 Sep 1.0 06:02:51 13° WSW 06:05:17 46° S 06:08:04 10° E visible
29 Sep 2.0 04:51:13 28° SE 04:51:13 28° SE 04:53:04 10° E visible
30 Sep 0.9 05:10:48 46° S 05:10:48 46° S 05:13:30 10° E visible
01 Oct 0.8 05:30:24 37° SW 05:31:04 45° S 05:33:50 10° ESE visible
02 Oct 3.8 04:18:48 11° ESE 04:18:48 11° ESE 04:18:55 10° E visible
02 Oct 1.2 05:50:02 22° WSW 05:51:23 35° SSW 05:54:03 10° SE visible
03 Oct 3.1 04:38:29 16° ESE 04:38:29 16° ESE 04:39:16 10° ESE visible
03 Oct 2.0 06:09:43 12° WSW 06:11:38 22° SSW 06:13:57 10° SSE visible
04 Oct 2.5 04:58:15 21° SE 04:58:15 21° SE 04:59:29 10° SE visible
